Home   Weather   Ponta Grossa   Past weeks
Flag for Brazil

Past Weather in Ponta Grossa, Paraná, Brazil — Yesterday and Last 2 Weeks

Now
61 °F

Mostly cloudy.


Feels Like: 61 °F
Forecast: 74 / 56 °F
Wind: 7 mph from Southwest

Location: Curitiba Aeroporto

Current Time: Oct 22, 2019 at 9:20:53 am

Latest Report: Oct 22, 2019 at 8:00 am


Visibility: N/A

Pressure: 30.01 "Hg (26.79 "Hg at 961m altitude)

Humidity: 88%

Dew Point: 57 °F

Location of Ponta GrossaLocation

Past Weather in Ponta Grossa — Graph

°F

Ponta Grossa Temperature Yesterday

Maximum temperature yesterday: 61 °F (at 4:00 pm)
Minimum temperature yesterday: 54 °F (at 12:00 am)
Average temperature yesterday: 56 °F

High & Low Weather Summary for the Past Weeks

 TemperatureHumidityPressure
High90 °F (Oct 12, 3:00 pm)100% (Oct 7, 8:00 am)30.27 "Hg (Oct 7, 8:00 am)
Low50 °F (Oct 10, 5:00 am)27% (Oct 13, 5:00 pm)29.83 "Hg (Oct 14, 2:00 am)
Average65 °F83%30.11 "Hg
* Reported Oct 7 8:00 am — Oct 22 8:00 am, Ponta Grossa. Weather by CustomWeather, © 2019

Note: Actual official high and low records may vary slightly from our data, if they occured in-between our weather recording intervals... More about our weather records

Advertising

Ponta Grossa Weather History for the Previous 24 Hours

Scroll right to see more
 ConditionsComfort  
Time TempWeatherWind HumidityBarometerVisibility
8:00 am
Tue, Oct 22
61 °FMostly cloudy.7 mph88%30.01 "HgN/A
7:00 am59 °FFog.7 mph94%29.98 "Hg2 mi
6:00 am59 °FFog.6 mph94%29.98 "Hg1 mi
5:00 am57 °FFog.5 mph100%29.95 "Hg1 mi
4:00 am59 °FFog.6 mph100%29.92 "Hg1 mi
3:00 am59 °FFog.3 mph94%29.92 "Hg2 mi
2:00 am59 °FFog.5 mph94%29.92 "Hg3 mi
1:00 am59 °FLow clouds.3 mph94%29.92 "Hg4 mi
12:00 am59 °FLow clouds.3 mph94%29.92 "Hg5 mi
11:00 pm
Mon, Oct 21
59 °FLow clouds.No wind94%29.92 "HgN/A
10:00 pm59 °FLow clouds.5 mph94%29.95 "HgN/A
9:00 pm59 °FOvercast.2 mph88%29.92 "HgN/A
8:00 pm59 °FPassing clouds.5 mph88%29.89 "HgN/A
7:00 pm59 °FLow clouds.8 mph88%29.89 "HgN/A
6:00 pm59 °FOvercast.8 mph88%29.86 "HgN/A
5:00 pm61 °FOvercast.10 mph88%29.86 "HgN/A
4:00 pm61 °FOvercast.7 mph83%29.89 "HgN/A
3:00 pm59 °FOvercast.7 mph82%29.89 "HgN/A
2:00 pm57 °FOvercast.9 mph88%29.89 "HgN/A
1:00 pm57 °FOvercast.8 mph82%29.95 "HgN/A
12:00 pm57 °FLow clouds.5 mph82%29.98 "HgN/A
11:00 am55 °FLight rain. Mostly cloudy.12 mph88%30.01 "HgN/A
10:00 am54 °FLight rain. Mostly cloudy.5 mph88%30.04 "Hg6 mi
9:00 am55 °FLight rain. Mostly cloudy.7 mph82%30.04 "Hg4 mi
Weather by CustomWeather, © 2019

See weather overview